San Carlos, CA

6:32 AM PDT on April 26, 2017 (GMT -0700)
San Carlos

Weather History for KSQL - February, 2013

Change the Weather History Date:

Sunday, February 24, 2013

  Actual Average Record
Temperature  
Mean Temperature 53 °F -  
Max Temperature 62 °F 63 °F 73 °F (1954)
Min Temperature 44 °F 42 °F 33 °F (1951)
Degree Days  
Heating Degree Days 12    
Growing Degree Days 3 (Base 50)    
Moisture  
Dew Point 30 °F    
Average Humidity 48    
Maximum Humidity 62    
Minimum Humidity 25    
Precipitation  
Precipitation 0.00 in - - ()
Sea Level Pressure  
Sea Level Pressure 30.23 in    
Wind  
Wind Speed 6 mph (NW)    
Max Wind Speed 13 mph    
Max Gust Speed 16 mph    
Visibility 10 miles    
Events      
Averages and records for this station are not official NWS values.
T = Trace of Precipitation, MM = Missing Value Source: NWS Daily Summary

Daily Weather History Graph

Daily Weather History Graph

Search for Another Location

Airport or City:

Trip Planner

Search our weather history database for the weather conditions in past years. The results will help you decide how hot, cold, wet, or windy it might be!

Date:

Astronomy

Feb. 24, 2013 Rise Set
Actual Time 6:46 AM PST 5:58 PM PST
Civil Twilight 6:20 AM PST 6:24 PM PST
Nautical Twilight 5:49 AM PST 6:54 PM PST
Astronomical Twilight 5:19 AM PST 7:25 PM PST
Moon 5:14 PM PST (2/24) 5:46 AM PST (2/24)
Length of Visible Light 12h 04m
Length of Day
11h 11m
Waxing Gibbous, 99% of the Moon is Illuminated
Feb 24
Waxing Gibbous
Feb 25
Full
Mar 4
Last Quarter
Mar 11
New
Mar 19
First Quarter

Hourly Weather History & Observations

Time (PST) Temp. Windchill Dew Point Humidity Pressure Visibility Wind Dir Wind Speed Gust Speed Precip Events Conditions
12:15 AM 48.2 °F - 33.8 °F 58% 30.23 in 10.0 mi NW 8.1 mph - N/A   Clear
12:35 AM 46.4 °F 42.9 °F 33.8 °F 62% 30.23 in 10.0 mi WNW 6.9 mph - N/A   Clear
12:55 AM 46.4 °F 45.2 °F 32.0 °F 57% 30.23 in 10.0 mi WNW 3.5 mph - N/A   Clear
1:15 AM 46.4 °F 44.3 °F 32.0 °F 57% 30.24 in 10.0 mi WNW 4.6 mph - N/A   Clear
1:35 AM 46.4 °F 42.9 °F 32.0 °F 57% 30.23 in 10.0 mi NW 6.9 mph - N/A   Clear
1:55 AM 46.4 °F 42.9 °F 32.0 °F 57% 30.23 in 10.0 mi NW 6.9 mph - N/A   Clear
2:15 AM 48.2 °F - 30.2 °F 50% 30.23 in 10.0 mi WNW 5.8 mph - N/A   Clear
2:35 AM 48.2 °F - 30.2 °F 50% 30.23 in 10.0 mi NNW 8.1 mph - N/A   Clear
2:55 AM 50.0 °F - 30.2 °F 47% 30.22 in 10.0 mi NNW 10.4 mph 16.1 mph N/A   Clear
3:15 AM 50.0 °F - 28.4 °F 43% 30.22 in 10.0 mi NNW 12.7 mph - N/A   Clear
3:35 AM 50.0 °F - 26.6 °F 40% 30.21 in 10.0 mi North 11.5 mph - N/A   Clear
3:55 AM 50.0 °F - 28.4 °F 43% 30.22 in 10.0 mi North 10.4 mph - N/A   Clear
4:15 AM 48.2 °F - 28.4 °F 46% 30.23 in 10.0 mi North 9.2 mph - N/A   Clear
4:35 AM 48.2 °F - 26.6 °F 43% 30.23 in 10.0 mi NW 5.8 mph - N/A   Clear
4:55 AM 48.2 °F - 28.4 °F 46% 30.23 in 10.0 mi NNW 4.6 mph - N/A   Clear
5:15 AM 48.2 °F - 28.4 °F 46% 30.23 in 10.0 mi NW 5.8 mph - N/A   Clear
5:35 AM 48.2 °F - 28.4 °F 46% 30.24 in 10.0 mi WNW 4.6 mph - N/A   Clear
5:55 AM 46.4 °F 43.5 °F 30.2 °F 53% 30.24 in 10.0 mi SSW 5.8 mph - N/A   Clear
6:15 AM 46.4 °F 45.2 °F 30.2 °F 53% 30.25 in 10.0 mi SW 3.5 mph - N/A   Clear
6:35 AM 46.4 °F - 30.2 °F 53% 30.25 in 10.0 mi Calm Calm - N/A   Clear
6:47 AM 46.4 °F 45.2 °F 30.2 °F 53% 30.25 in 10.0 mi SW 3.5 mph - N/A   Partly Cloudy
6:55 AM 44.6 °F - 30.2 °F 57% 30.25 in 10.0 mi Calm Calm - N/A   Clear
7:47 AM 48.2 °F - 32.0 °F 54% 30.26 in 10.0 mi Calm Calm - N/A   Scattered Clouds
8:47 AM 51.8 °F - 28.4 °F 41% 30.28 in 10.0 mi NNW 6.9 mph - N/A   Scattered Clouds
9:46 AM 53.6 °F - 26.6 °F 35% 30.28 in 10.0 mi NNW 3.5 mph - N/A   Scattered Clouds
11:52 AM 55.4 °F - 21.2 °F 26% 30.26 in 10.0 mi Calm Calm - N/A   Scattered Clouds
12:59 PM 57.2 °F - 24.8 °F 29% 30.23 in 10.0 mi NE 3.5 mph - N/A   Scattered Clouds
1:55 PM 59.0 °F - 23.0 °F 25% 30.21 in 10.0 mi NNW 3.5 mph - N/A   Scattered Clouds
3:53 PM 62.6 °F - 26.6 °F 26% 30.19 in 10.0 mi WNW 8.1 mph - N/A   Scattered Clouds
4:59 PM 59.0 °F - 32.0 °F 36% 30.19 in 10.0 mi WNW 9.2 mph - N/A   Clear
5:47 PM 57.2 °F - 28.4 °F 33% 30.19 in 10.0 mi West 6.9 mph - N/A   Clear
6:55 PM 53.6 °F - 28.4 °F 38% 30.19 in 10.0 mi NW 8.1 mph - N/A   Clear
7:47 PM 53.6 °F - 32.0 °F 44% 30.21 in 10.0 mi SE 4.6 mph - N/A   Clear
8:47 PM 50.0 °F - 32.0 °F 50% 30.22 in 10.0 mi Calm Calm - N/A   Clear
9:15 PM 48.2 °F - 32.0 °F 54% 30.23 in 10.0 mi Calm Calm - N/A   Clear
9:35 PM 48.2 °F - 32.0 °F 54% 30.24 in 10.0 mi Calm Calm - N/A   Clear
9:55 PM 48.2 °F - 32.0 °F 54% 30.25 in 10.0 mi Calm Calm - N/A   Clear
10:15 PM 46.4 °F - 32.0 °F 57% 30.25 in 10.0 mi Calm Calm - N/A   Clear
10:35 PM 46.4 °F 44.3 °F 32.0 °F 57% 30.25 in 10.0 mi SSW 4.6 mph - N/A   Clear
10:55 PM 46.4 °F 45.2 °F 32.0 °F 57% 30.25 in 10.0 mi West 3.5 mph - N/A   Clear
11:15 PM 46.4 °F - 32.0 °F 57% 30.26 in 10.0 mi Calm Calm - N/A   Clear
11:35 PM 46.4 °F - 32.0 °F 57% 30.25 in 10.0 mi Calm Calm - N/A   Clear
11:55 PM 46.4 °F - 32.0 °F 57% 30.26 in 10.0 mi Calm Calm - N/A   Clear